CST,Max TemperatureF,Mean TemperatureF,Min TemperatureF,Max Dew PointF,MeanDew PointF,Min DewpointF,Max Humidity, Mean Humidity, Min Humidity, Max Sea Level PressureIn, Mean Sea Level PressureIn, Min Sea Level PressureIn, Max VisibilityMiles, Mean VisibilityMiles, Min VisibilityMiles, Max Wind SpeedMPH, Mean Wind SpeedMPH, Max Gust SpeedMPH,PrecipitationIn, CloudCover, Events, WindDirDegrees
2013-11-1,48,45,42,46,41,37,93,82,71,29.70,29.45,29.13,10,10,6,17,12,25,0.48,8,,307
2013-11-2,42,38,35,37,33,28,87,77,61,30.15,29.94,29.71,10,10,7,16,10,21,0.11,6,,25
2013-11-3,44,37,30,37,32,25,93,77,66,30.31,30.26,30.15,10,10,9,17,5,25,0.00,4,,148
2013-11-4,48,46,44,43,39,37,82,76,66,30.27,30.16,30.06,10,10,10,30,18,39,0.00,8,,172
2013-11-5,53,47,41,46,41,34,93,79,50,30.27,30.14,29.88,10,8,2,22,9,32,0.68,5,,209
2013-11-6,48,40,33,46,34,19,93,80,52,30.06,29.87,29.71,10,8,2,22,14,30,0.35,8,,318
2013-11-7,37,34,30,25,22,19,80,58,48,30.14,30.11,30.07,10,10,10,16,13,23,0.00,7,,295
2013-11-8,44,37,30,37,27,19,81,65,48,30.23,30.13,29.86,10,10,9,20,10,29,0.00,4,,222
2013-11-9,46,42,39,39,34,27,87,71,53,29.92,29.76,29.66,10,10,9,25,17,34,0.34,8,,246
2013-11-10,44,40,37,32,28,25,75,62,49,30.22,30.12,29.92,10,10,10,23,15,29,0.00,5,,271
2013-11-11,39,32,26,34,18,9,87,62,40,30.49,30.22,30.01,10,10,4,24,15,33,0.08,7,,322
2013-11-12,28,26,23,14,11,9,64,53,43,30.62,30.54,30.45,10,10,10,22,15,32,0.00,3,,297
2013-11-13,42,32,21,19,16,12,74,52,38,30.45,30.13,29.92,10,10,10,23,15,32,0.00,0,,233
2013-11-14,44,38,33,30,23,16,70,53,44,29.92,29.86,29.82,10,10,10,17,11,22,0.00,3,,216
2013-11-15,51,43,35,37,32,27,87,72,54,29.90,29.86,29.82,10,10,8,13,8,,0.00,0,,201
2013-11-16,51,44,37,48,41,30,94,86,75,29.88,29.68,29.45,10,6,1,29,15,39,0.62,7,Thunderstorm,174
2013-11-17,53,47,41,52,45,30,94,88,65,29.46,29.31,29.13,10,5,0,26,12,38,0.52,8,Thunderstorm,246
2013-11-18,41,36,30,30,20,16,70,58,52,30.20,29.85,29.46,10,10,10,30,20,39,0.09,7,,296
2013-11-19,37,32,26,30,21,16,81,65,52,30.37,30.29,30.20,10,10,10,15,8,22,0.00,1,,163
2013-11-20,42,40,37,34,31,30,87,72,61,30.25,30.19,30.12,10,10,10,25,14,33,0.00,5,,171
2013-11-21,39,36,33,36,34,30,93,86,81,30.25,30.16,30.12,10,7,4,18,8,25,0.07,8,,279
2013-11-22,33,30,26,28,19,10,87,65,47,30.42,30.35,30.25,10,9,3,22,16,30,0.00,4,,310
2013-11-23,26,20,14,12,2,-2,68,51,39,30.63,30.51,30.32,10,10,4,26,19,34,0.00,5,,321
2013-11-24,26,19,12,7,2,-2,62,50,39,30.59,30.42,30.06,10,10,10,24,13,36,0.00,4,,255
2013-11-25,32,28,24,25,17,5,75,62,40,30.05,29.93,29.88,10,10,10,28,19,40,0.00,7,,228
2013-11-26,33,24,15,27,14,1,86,62,40,30.14,30.02,29.91,10,10,2,22,12,29,0.00,6,,311
2013-11-27,26,20,15,18,11,7,86,63,47,30.19,30.15,30.10,10,10,3,22,14,28,0.00,6,,349
2013-11-28,26,24,21,19,17,12,86,77,59,30.43,30.24,30.16,10,9,2,14,5,20,0.00,7,,287
2013-11-29,30,24,19,23,17,12,93,72,51,30.58,30.48,30.32,10,10,10,13,8,16,0.00,3,,253
2013-11-30,37,34,30,27,23,19,80,67,60,30.32,30.11,30.01,10,10,10,17,9,24,0.00,6,,226